Date,Time,Wetness (Wet Dry or Ice),Wind Speed (m/s),Temperature (C),Humidity (%),Pressure (mb),Radiation (W/m^2)
2020-04-20,05:30:00,DRY,7.20,5.40,26.0,775.00,1.0
2020-04-20,05:35:00,DRY,6.95,5.30,27.0,775.00,1.4
2020-04-20,05:40:00,DRY,6.57,5.30,30.7,775.00,1.1
2020-04-20,05:45:00,DRY,6.65,5.20,30.0,775.00,1.2
2020-04-20,05:50:00,DRY,7.30,5.07,26.0,775.00,0.9
2020-04-20,05:55:00,DRY,5.15,4.95,16.5,775.00,0.9
2020-04-20,06:00:00,DRY,6.00,4.67,13.0,775.00,1.2
2020-04-20,06:05:00,DRY,7.05,4.75,18.0,775.50,1.8
2020-04-20,06:10:00,DRY,5.90,4.80,21.0,775.67,1.5
2020-04-20,06:15:00,DRY,5.60,4.80,34.5,776.00,1.2
2020-04-20,06:20:00,DRY,7.23,5.07,41.3,775.67,1.4
2020-04-20,06:25:00,DRY,6.75,5.75,38.0,776.00,1.8
2020-04-20,06:30:00,DRY,6.55,5.45,39.0,776.00,3.5
2020-04-20,06:35:00,DRY,8.45,5.55,41.5,775.50,4.7
2020-04-20,06:40:00,DRY,7.97,5.70,39.7,776.00,10.4
2020-04-20,06:45:00,DRY,8.75,5.90,37.5,776.00,19.9
2020-04-20,06:50:00,DRY,7.90,5.87,38.7,776.00,33.9
2020-04-20,06:55:00,DRY,7.10,6.10,36.5,776.00,52.0
2020-04-20,07:00:00,DRY,7.93,6.13,37.7,776.00,75.8
2020-04-20,07:05:00,DRY,6.95,6.40,40.0,776.00,101.5
2020-04-20,07:10:00,DRY,8.47,6.80,38.7,776.00,124.1
2020-04-20,07:15:00,DRY,8.50,6.50,35.5,776.00,145.2
2020-04-20,07:20:00,DRY,7.40,6.73,34.7,776.00,166.1
2020-04-20,07:25:00,DRY,7.10,6.95,31.0,776.00,188.4
2020-04-20,07:30:00,DRY,8.07,6.97,31.7,776.00,212.5
2020-04-20,07:35:00,DRY,7.90,6.95,32.0,776.00,237.1
2020-04-20,07:40:00,DRY,7.83,7.03,31.7,776.00,258.6
2020-04-20,07:45:00,DRY,8.25,7.20,31.5,776.00,287.2
2020-04-20,07:50:00,DRY,7.00,7.23,32.3,776.00,306.6
2020-04-20,07:55:00,DRY,7.45,7.25,32.5,776.00,326.2
2020-04-20,08:00:00,DRY,7.47,7.33,33.7,776.00,352.5
2020-04-20,08:05:00,DRY,7.55,7.50,36.5,776.00,376.4
2020-04-20,08:10:00,DRY,6.93,7.60,38.3,776.00,401.2
2020-04-20,08:15:00,DRY,6.10,7.45,39.0,776.00,424.5
2020-04-20,08:20:00,DRY,7.33,7.50,44.0,776.00,447.9
2020-04-20,08:25:00,DRY,5.85,7.70,47.0,776.00,472.4
2020-04-20,08:30:00,DRY,7.40,7.77,48.7,776.33,495.5
2020-04-20,08:35:00,DRY,7.40,7.55,47.0,776.00,518.3
2020-04-20,08:40:00,DRY,7.53,7.67,45.3,776.00,542.6
2020-04-20,08:45:00,DRY,7.00,7.35,38.0,776.50,560.3
2020-04-20,08:50:00,DRY,6.17,7.23,35.0,776.00,582.5
2020-04-20,08:55:00,DRY,8.80,7.35,38.5,776.00,605.6
2020-04-20,09:00:00,DRY,6.10,7.03,39.3,776.00,628.5
2020-04-20,09:05:00,DRY,6.00,7.05,41.0,776.50,647.8
2020-04-20,09:10:00,DRY,6.37,6.80,45.0,777.00,666.5
2020-04-20,09:15:00,DRY,6.75,7.75,46.0,777.00,694.9
2020-04-20,09:20:00,DRY,5.27,7.87,45.3,777.00,714.5
2020-04-20,09:25:00,DRY,5.40,7.90,42.0,777.00,734.1
2020-04-20,09:30:00,DRY,6.30,7.80,36.0,777.00,753.2
2020-04-20,09:35:00,DRY,6.05,7.65,35.5,777.00,771.9
2020-04-20,09:40:00,DRY,6.50,7.70,35.0,777.00,786.1
2020-04-20,09:45:00,DRY,6.80,7.50,36.0,777.00,807.0
2020-04-20,09:50:00,DRY,7.60,8.20,37.0,777.00,832.1
2020-04-20,09:55:00,DRY,7.40,8.30,39.0,777.00,847.9
2020-04-20,10:00:00,DRY,7.80,8.43,39.3,777.00,865.8
2020-04-20,10:05:00,DRY,7.45,8.80,41.5,777.00,885.0
2020-04-20,10:10:00,DRY,7.47,8.77,39.3,777.00,880.8
2020-04-20,10:15:00,DRY,7.70,8.85,39.5,777.00,932.7
2020-04-20,10:20:00,DRY,7.43,8.80,41.7,777.00,936.4
2020-04-20,10:25:00,DRY,8.55,9.15,41.5,777.00,937.5
2020-04-20,10:30:00,DRY,7.67,9.23,41.3,777.00,962.0
2020-04-20,10:35:00,DRY,7.60,8.80,52.5,777.00,947.9
2020-04-20,10:40:00,DRY,6.93,8.80,42.3,777.33,724.7
2020-04-20,10:45:00,DRY,7.35,9.10,42.5,777.00,996.5
2020-04-20,10:50:00,DRY,6.83,9.07,41.3,777.67,1050.2
2020-04-20,10:55:00,DRY,6.90,9.10,43.0,778.00,1022.2
2020-04-20,11:00:00,DRY,6.10,9.50,41.0,778.00,851.6
2020-04-20,11:05:00,DRY,6.35,9.55,40.5,778.00,982.6
2020-04-20,11:10:00,DRY,6.83,9.40,40.3,778.00,1096.8
2020-04-20,11:15:00,DRY,7.40,9.80,41.0,778.00,1148.0
2020-04-20,11:20:00,DRY,6.37,10.30,40.0,778.00,1162.6
2020-04-20,11:25:00,DRY,5.60,10.25,38.5,778.00,994.7
2020-04-20,11:30:00,DRY,5.20,9.93,38.7,777.67,819.7
2020-04-20,11:35:00,DRY,5.75,9.70,41.0,778.00,694.5
2020-04-20,11:40:00,DRY,5.50,9.10,43.7,778.00,631.9
2020-04-20,11:45:00,DRY,5.10,8.95,42.5,778.00,647.5
2020-04-20,11:50:00,DRY,4.77,9.47,42.0,778.00,844.6
2020-04-20,11:55:00,DRY,5.95,9.50,40.5,778.00,968.1
2020-04-20,12:00:00,DRY,5.83,9.47,43.7,778.00,1068.7
2020-04-20,12:05:00,DRY,6.35,10.35,34.0,778.00,1118.2
2020-04-20,12:10:00,DRY,5.17,9.80,30.3,777.67,823.3
2020-04-20,12:15:00,DRY,4.30,9.30,38.0,777.50,849.4
2020-04-20,12:20:00,DRY,5.57,9.87,32.7,777.67,1119.4
2020-04-20,12:25:00,DRY,4.75,10.60,27.5,778.00,1078.0
2020-04-20,12:30:00,DRY,5.17,9.83,33.0,777.00,1126.7
2020-04-20,12:35:00,DRY,5.40,10.40,27.0,777.00,1115.7
2020-04-20,12:40:00,DRY,4.97,9.93,29.0,777.00,1180.2
2020-04-20,12:45:00,DRY,4.90,10.45,31.5,777.00,1264.9
2020-04-20,12:50:00,DRY,5.20,11.37,19.0,777.00,1247.9
2020-04-20,12:55:00,DRY,5.30,11.35,15.5,777.00,1075.6
2020-04-20,13:00:00,DRY,6.13,11.87,13.0,777.00,1221.0
2020-04-20,13:05:00,DRY,5.95,11.95,11.0,777.00,1196.3
2020-04-20,13:10:00,DRY,4.90,11.77,13.3,777.00,1206.2
2020-04-20,13:15:00,DRY,4.55,11.95,11.0,777.00,1222.8
2020-04-20,13:20:00,DRY,4.27,12.43,12.3,777.00,1218.1
2020-04-20,13:25:00,DRY,3.90,12.95,13.0,777.00,1159.6
2020-04-20,13:30:00,DRY,6.00,13.60,8.0,777.00,1227.0
2020-04-20,13:35:00,DRY,4.20,12.70,8.0,777.00,1231.5
2020-04-20,13:40:00,DRY,5.53,12.67,9.7,777.00,1121.8
2020-04-20,13:45:00,DRY,5.60,12.80,8.5,777.00,1092.2
2020-04-20,13:50:00,DRY,5.43,12.40,10.3,777.00,1217.9
2020-04-20,13:55:00,DRY,5.35,12.10,10.0,777.00,1039.2
2020-04-20,14:00:00,DRY,5.23,12.20,10.0,777.00,1161.9
2020-04-20,14:05:00,DRY,4.15,11.80,11.0,777.00,1101.8
2020-04-20,14:10:00,DRY,4.80,11.63,20.7,777.00,1102.6
2020-04-20,14:15:00,DRY,3.40,11.85,16.0,777.00,1174.9
2020-04-20,14:20:00,DRY,4.97,12.03,10.0,777.00,1204.2
2020-04-20,14:25:00,DRY,3.65,12.05,8.5,777.00,1146.6
2020-04-20,14:30:00,DRY,4.37,12.43,8.7,777.00,1067.3
2020-04-20,14:35:00,DRY,3.55,12.70,10.0,777.00,1185.8
2020-04-20,14:40:00,DRY,4.47,12.13,13.7,777.00,1039.0
2020-04-20,14:45:00,DRY,4.45,12.65,10.0,777.00,1155.0
2020-04-20,14:50:00,DRY,4.07,12.80,13.7,777.00,1076.3
2020-04-20,14:55:00,DRY,4.05,12.40,16.0,777.00,1128.8
2020-04-20,15:00:00,DRY,3.07,12.53,19.7,777.00,1089.1
2020-04-20,15:05:00,DRY,3.95,12.20,17.0,777.00,1012.6
2020-04-20,15:10:00,DRY,3.07,11.63,15.0,777.00,1056.1
2020-04-20,15:15:00,DRY,2.85,12.10,17.0,777.00,1071.8
2020-04-20,15:20:00,DRY,3.07,12.37,25.7,777.00,1057.8
2020-04-20,15:25:00,DRY,2.80,12.10,34.5,777.00,1025.3
2020-04-20,15:30:00,DRY,3.10,11.87,23.7,777.00,1024.3
2020-04-20,15:35:00,DRY,3.20,12.80,17.0,777.00,1017.0
2020-04-20,15:40:00,DRY,4.00,12.17,21.3,777.00,997.2
2020-04-20,15:45:00,DRY,3.85,11.40,38.0,777.00,982.6
2020-04-20,15:50:00,DRY,3.97,11.07,36.7,777.00,941.1
2020-04-20,15:55:00,DRY,2.65,10.25,40.0,777.00,872.5
2020-04-20,16:00:00,DRY,2.30,10.50,28.3,777.00,925.0
2020-04-20,16:05:00,DRY,2.60,10.35,16.0,777.00,904.0
2020-04-20,16:10:00,DRY,3.53,10.87,21.0,777.00,883.5
2020-04-20,16:15:00,DRY,2.95,10.60,21.5,777.00,868.5
2020-04-20,16:20:00,DRY,3.43,10.90,19.0,776.67,848.7
2020-04-20,16:25:00,DRY,3.60,11.65,13.0,776.50,830.5
2020-04-20,16:30:00,DRY,3.20,12.07,17.3,776.67,812.6
2020-04-20,16:35:00,DRY,3.40,12.00,17.0,777.00,793.0
2020-04-20,16:40:00,DRY,3.50,11.43,15.7,777.00,773.8
2020-04-20,16:45:00,DRY,3.40,11.50,12.0,777.00,754.4
2020-04-20,16:50:00,DRY,3.83,12.13,10.3,777.00,733.7
2020-04-20,16:55:00,DRY,3.70,11.80,12.5,776.50,714.0
2020-04-20,17:00:00,DRY,2.97,10.63,24.7,777.00,693.6
2020-04-20,17:05:00,DRY,2.95,10.10,24.5,777.00,672.2
2020-04-20,17:10:00,DRY,2.90,9.60,24.0,777.00,651.1
2020-04-20,17:15:00,DRY,3.85,9.50,19.0,776.50,629.9
2020-04-20,17:20:00,DRY,3.57,9.20,20.0,777.00,607.5
2020-04-20,17:25:00,DRY,3.70,9.10,19.0,777.00,584.5
2020-04-20,17:30:00,DRY,3.97,9.63,19.0,777.00,562.6
2020-04-20,17:35:00,DRY,2.35,9.40,17.0,777.00,540.4
2020-04-20,17:40:00,DRY,3.70,9.53,20.3,777.00,516.9
2020-04-20,17:45:00,DRY,3.05,9.35,20.5,777.00,494.2
2020-04-20,17:50:00,DRY,2.67,9.53,17.0,777.00,471.2
2020-04-20,17:55:00,DRY,2.90,9.65,15.5,777.00,447.5
2020-04-20,18:00:00,DRY,3.43,9.27,18.7,777.00,424.0
2020-04-20,18:05:00,DRY,3.65,9.25,15.0,777.00,400.6
2020-04-20,18:10:00,DRY,3.67,8.93,13.7,777.00,377.1
2020-04-20,18:15:00,DRY,3.75,9.05,15.5,777.00,352.9
2020-04-20,18:20:00,DRY,3.43,9.03,13.7,777.00,328.9
2020-04-20,18:25:00,DRY,3.25,8.90,13.5,777.00,305.2
2020-04-20,18:30:00,DRY,3.77,8.87,13.3,777.00,281.9
2020-04-20,18:35:00,DRY,3.85,8.60,14.0,777.00,259.1
2020-04-20,18:40:00,DRY,4.23,8.60,13.3,777.00,176.3
2020-04-20,18:45:00,DRY,3.90,8.35,12.0,777.00,44.3
2020-04-20,18:50:00,DRY,4.63,8.17,9.7,777.00,38.5
2020-04-20,18:55:00,DRY,4.35,8.10,10.0,777.00,35.3
2020-04-20,19:00:00,DRY,4.57,7.90,10.0,777.00,32.8
2020-04-20,19:05:00,DRY,3.55,7.70,10.0,777.00,30.7
2020-04-20,19:10:00,DRY,4.50,7.67,9.3,777.00,27.9
2020-04-20,19:15:00,DRY,4.50,7.65,9.0,777.00,25.2
2020-04-20,19:20:00,DRY,4.23,7.60,8.3,777.00,22.2
2020-04-20,19:25:00,DRY,4.35,7.60,8.5,777.00,19.4
2020-04-20,19:30:00,DRY,3.90,7.55,9.0,777.00,15.6
2020-04-20,19:35:00,DRY,4.30,7.55,9.0,777.00,13.1
2020-04-20,19:40:00,DRY,4.70,7.57,8.7,777.00,10.6
2020-04-20,19:45:00,DRY,4.70,7.65,8.5,777.00,6.4
2020-04-20,19:50:00,DRY,5.20,7.50,8.7,777.00,3.8
2020-04-20,19:55:00,DRY,4.65,7.10,10.0,777.00,1.9
2020-04-20,20:00:00,DRY,5.00,6.80,11.0,777.00,1.6
2020-04-20,20:05:00,DRY,5.60,6.80,11.5,777.00,1.5
2020-04-20,20:10:00,DRY,6.63,6.80,12.3,777.00,1.4
2020-04-20,20:15:00,DRY,6.75,6.75,13.0,777.00,1.1
2020-04-20,20:20:00,DRY,7.53,6.73,12.7,777.00,1.2
2020-04-20,20:25:00,DRY,6.85,6.60,13.0,777.00,1.2
2020-04-20,20:30:00,DRY,6.13,6.70,12.7,777.00,1.4
2020-04-20,20:35:00,DRY,6.85,6.75,12.0,777.00,1.2
2020-04-20,20:40:00,DRY,7.00,6.80,12.0,777.33,1.2
2020-04-20,20:45:00,DRY,6.15,6.90,11.5,777.50,1.4
2020-04-20,20:50:00,DRY,5.80,6.77,11.0,778.00,1.3
2020-04-20,20:55:00,DRY,6.00,6.70,10.0,778.00,1.5
2020-04-20,21:00:00,DRY,5.70,6.53,10.0,778.00,2.1
2020-04-20,21:05:00,DRY,5.85,6.45,10.0,778.00,1.6
2020-04-20,21:10:00,DRY,6.03,6.80,10.7,778.00,1.1
2020-04-20,21:15:00,DRY,5.85,6.95,11.0,778.00,0.7
2020-04-20,21:20:00,DRY,5.20,6.83,10.3,778.00,1.2
2020-04-20,21:25:00,DRY,5.05,6.95,11.5,778.00,1.1
2020-04-20,21:30:00,DRY,5.23,7.10,12.0,778.00,1.2
2020-04-20,21:35:00,DRY,4.80,7.10,12.0,778.00,1.4
2020-04-20,21:40:00,DRY,5.13,7.00,12.0,778.00,1.3
2020-04-20,21:45:00,DRY,6.25,7.20,13.0,778.00,1.4
2020-04-20,21:50:00,DRY,5.37,7.27,12.0,778.00,1.4
2020-04-20,21:55:00,DRY,5.05,7.25,12.0,778.00,1.2
2020-04-20,22:00:00,DRY,5.53,7.30,12.0,778.00,1.4
2020-04-20,22:05:00,DRY,5.75,7.45,12.0,778.00,1.1
2020-04-20,22:10:00,DRY,5.93,7.57,12.3,778.00,1.2
2020-04-20,22:15:00,DRY,5.60,7.65,12.5,778.00,1.4
2020-04-20,22:20:00,DRY,5.60,7.57,12.0,778.00,1.1
2020-04-20,22:25:00,DRY,7.00,7.70,11.0,778.00,1.2
2020-04-20,22:30:00,DRY,4.27,7.67,10.3,778.00,0.9
2020-04-20,22:35:00,DRY,3.85,7.40,10.5,778.00,1.4
2020-04-20,22:40:00,DRY,5.10,7.27,11.7,778.00,1.4
2020-04-20,22:45:00,DRY,4.50,7.30,12.0,778.00,1.2
2020-04-20,22:50:00,DRY,4.63,7.40,12.3,778.00,2.0
2020-04-20,22:55:00,DRY,4.50,7.30,13.0,778.00,1.2
2020-04-20,23:00:00,DRY,5.87,7.40,13.7,778.00,1.2
2020-04-20,23:05:00,DRY,5.20,7.65,13.5,778.00,1.2
2020-04-20,23:10:00,DRY,5.17,7.50,13.7,778.00,1.1
2020-04-20,23:15:00,DRY,5.20,7.45,14.5,778.00,1.1
2020-04-20,23:20:00,DRY,4.70,7.27,13.3,778.00,1.4
2020-04-20,23:25:00,DRY,4.05,7.40,13.5,778.00,1.1
2020-04-20,23:30:00,DRY,4.70,7.23,15.3,778.00,0.9
2020-04-20,23:35:00,DRY,3.80,7.35,14.0,778.00,0.7
2020-04-20,23:40:00,DRY,4.63,7.17,14.0,778.00,1.1
2020-04-20,23:45:00,DRY,5.60,7.50,13.5,778.00,0.8
2020-04-20,23:50:00,DRY,4.53,7.33,14.0,778.00,1.2
2020-04-20,23:55:00,DRY,4.65,7.45,13.5,777.50,1.0
2020-04-21,00:00:00,DRY,4.60,7.50,13.7,778.00,1.2
2020-04-21,00:05:00,DRY,4.95,7.35,13.0,778.00,1.1
2020-04-21,00:10:00,DRY,5.20,7.15,14.0,777.00,1.4
2020-04-21,00:15:00,DRY,4.85,7.65,12.5,778.00,1.1
2020-04-21,00:20:00,DRY,4.67,7.50,14.3,777.00,1.1
2020-04-21,00:25:00,DRY,5.20,7.10,14.5,777.00,1.1
2020-04-21,00:30:00,DRY,5.77,7.13,14.0,777.00,1.2
2020-04-21,00:35:00,DRY,5.40,7.10,14.0,777.00,1.3
2020-04-21,00:40:00,DRY,5.90,6.83,14.7,777.00,1.0
2020-04-21,00:45:00,DRY,6.65,6.65,15.0,777.00,1.4
2020-04-21,00:50:00,DRY,6.00,6.97,15.0,777.00,1.2
2020-04-21,00:55:00,DRY,6.15,7.00,14.0,777.00,1.1
2020-04-21,01:00:00,DRY,5.80,6.97,14.0,777.00,1.1
2020-04-21,01:05:00,DRY,8.05,7.05,14.0,777.00,1.1
2020-04-21,01:10:00,DRY,6.37,6.90,14.7,777.00,1.1
2020-04-21,01:15:00,DRY,6.85,6.85,14.0,777.00,1.1
2020-04-21,01:20:00,DRY,6.93,6.97,13.3,777.00,1.1
2020-04-21,01:25:00,DRY,6.45,6.90,13.5,777.00,1.1
2020-04-21,01:30:00,DRY,7.80,7.03,12.7,777.00,0.9
2020-04-21,01:35:00,DRY,7.10,6.85,12.0,777.00,0.9
2020-04-21,01:40:00,DRY,7.00,6.87,13.7,776.67,0.7
2020-04-21,01:45:00,DRY,7.35,6.85,14.0,777.00,1.1
2020-04-21,01:50:00,DRY,6.33,6.93,13.7,776.33,1.0
2020-04-21,01:55:00,DRY,7.00,6.80,14.5,776.00,1.0
2020-04-21,02:00:00,DRY,6.10,6.93,14.0,776.00,1.9
2020-04-21,02:05:00,DRY,6.65,6.80,14.5,776.00,1.1
2020-04-21,02:10:00,DRY,7.60,6.97,14.7,776.00,1.1
2020-04-21,02:15:00,DRY,6.60,6.70,14.0,776.00,2.4
2020-04-21,02:20:00,DRY,5.73,6.77,14.0,776.00,1.5
2020-04-21,02:25:00,DRY,6.95,6.50,14.5,776.00,1.1
2020-04-21,02:30:00,DRY,6.07,6.70,14.7,776.00,1.2
2020-04-21,02:35:00,DRY,7.15,6.65,16.0,776.00,1.2
2020-04-21,02:40:00,DRY,6.97,6.67,15.3,776.00,1.4
2020-04-21,02:45:00,DRY,5.60,6.85,14.5,776.00,1.1
2020-04-21,02:50:00,DRY,5.83,6.63,14.7,776.00,1.1
2020-04-21,02:55:00,DRY,6.10,6.65,13.5,776.00,1.2
2020-04-21,03:00:00,DRY,6.50,6.17,13.3,776.00,0.9
2020-04-21,03:05:00,DRY,6.10,6.40,14.0,776.00,1.3
2020-04-21,03:10:00,DRY,6.73,6.37,13.7,775.33,1.0
2020-04-21,03:15:00,DRY,6.15,6.10,13.5,775.50,0.6
2020-04-21,03:20:00,DRY,6.20,6.27,13.7,775.00,1.4
2020-04-21,03:25:00,DRY,7.40,5.95,14.0,775.00,1.4
2020-04-21,03:30:00,DRY,6.70,5.90,13.7,775.00,1.2
2020-04-21,03:35:00,DRY,5.75,6.20,13.0,775.00,1.3
2020-04-21,03:40:00,DRY,6.57,5.73,14.0,775.00,0.9
2020-04-21,03:45:00,DRY,7.10,5.95,12.5,775.00,1.2
2020-04-21,03:50:00,DRY,6.77,5.93,12.7,775.00,0.8
2020-04-21,03:55:00,DRY,7.90,6.25,13.0,775.00,1.1
2020-04-21,04:00:00,DRY,8.17,6.03,13.3,775.00,1.3
2020-04-21,04:05:00,DRY,7.80,5.90,14.5,775.00,1.8
2020-04-21,04:10:00,DRY,7.87,5.93,13.7,775.00,1.0
2020-04-21,04:15:00,DRY,7.15,5.75,14.0,775.00,0.9
2020-04-21,04:20:00,DRY,6.97,5.90,14.0,775.00,1.3
2020-04-21,04:25:00,DRY,7.50,5.70,15.0,775.00,0.9
2020-04-21,04:30:00,DRY,7.67,6.03,14.0,775.00,1.0
2020-04-21,04:35:00,DRY,7.75,5.70,15.5,775.00,1.1
2020-04-21,04:40:00,DRY,7.57,5.43,16.0,775.00,1.0
2020-04-21,04:45:00,DRY,8.25,5.55,16.5,775.00,1.1
2020-04-21,04:50:00,DRY,7.83,5.40,16.7,775.00,1.4
2020-04-21,04:55:00,DRY,8.50,5.45,17.0,775.00,1.4
2020-04-21,05:00:00,DRY,8.40,5.43,17.0,775.00,0.9
2020-04-21,05:05:00,DRY,8.15,5.45,17.0,775.00,1.1
2020-04-21,05:10:00,DRY,8.43,5.93,16.3,775.00,0.9
2020-04-21,05:15:00,DRY,8.00,5.95,16.5,775.00,1.1
2020-04-21,05:20:00,DRY,8.03,5.77,17.3,775.00,1.0
2020-04-21,05:25:00,DRY,6.65,5.90,17.5,775.00,0.9
2020-04-21,05:30:00,DRY,7.50,5.73,17.7,775.00,1.1
2020-04-21,05:35:00,DRY,8.45,5.95,17.5,775.00,1.0
2020-04-21,05:40:00,DRY,8.67,5.97,17.3,775.00,1.1
2020-04-21,05:45:00,DRY,8.60,5.85,17.5,775.00,1.1
2020-04-21,05:50:00,DRY,9.37,5.63,18.0,775.00,1.1
2020-04-21,05:55:00,DRY,8.65,5.95,18.0,775.00,1.1
2020-04-21,06:00:00,DRY,8.63,5.77,18.0,775.00,1.4
2020-04-21,06:05:00,DRY,8.70,5.65,19.0,775.00,1.1
2020-04-21,06:10:00,DRY,8.30,5.70,18.3,775.00,1.0
2020-04-21,06:15:00,DRY,8.75,5.85,19.0,775.00,1.0
2020-04-21,06:20:00,DRY,8.23,5.83,19.0,775.00,1.5
2020-04-21,06:25:00,DRY,9.10,5.65,19.0,775.00,2.1
2020-04-21,06:30:00,DRY,8.70,5.73,19.0,775.00,3.0
2020-04-21,06:35:00,DRY,9.15,5.60,19.5,775.00,5.5
2020-04-21,06:40:00,DRY,8.67,5.67,19.3,775.00,12.2
2020-04-21,06:45:00,DRY,9.45,5.85,19.0,774.50,23.0
2020-04-21,06:50:00,DRY,8.07,5.93,19.0,775.00,38.7
2020-04-21,06:55:00,DRY,8.75,6.05,18.5,775.00,58.3
2020-04-21,07:00:00,DRY,8.07,6.10,18.7,775.00,83.9
2020-04-21,07:05:00,DRY,8.45,6.25,18.0,775.00,110.1
2020-04-21,07:10:00,DRY,8.50,6.23,18.7,775.00,132.3
2020-04-21,07:15:00,DRY,9.00,6.55,18.0,775.00,152.8
2020-04-21,07:20:00,DRY,8.57,6.47,18.0,775.00,175.2
2020-04-21,07:25:00,DRY,8.30,6.60,18.0,775.00,197.4
2020-04-21,07:30:00,DRY,8.23,6.73,18.0,775.00,220.9
2020-04-21,07:35:00,DRY,8.15,7.05,17.5,775.00,244.6
2020-04-21,07:40:00,DRY,7.77,6.97,17.7,775.00,268.6
2020-04-21,07:45:00,DRY,8.25,6.90,17.5,775.00,292.6
2020-04-21,07:50:00,DRY,7.93,6.93,18.0,775.00,316.5
2020-04-21,07:55:00,DRY,7.00,6.90,18.0,775.00,340.5
2020-04-21,08:00:00,DRY,7.17,7.00,17.3,775.00,364.8
2020-04-21,08:05:00,DRY,7.25,7.15,17.0,775.00,387.9
2020-04-21,08:10:00,DRY,7.00,7.30,17.0,775.00,411.9
2020-04-21,08:15:00,DRY,6.75,7.35,17.0,775.00,434.9
2020-04-21,08:20:00,DRY,6.87,7.70,18.0,775.00,459.3
2020-04-21,08:25:00,DRY,7.40,7.90,17.0,775.00,486.7
2020-04-21,08:30:00,DRY,6.60,7.70,17.3,775.00,505.8
2020-04-21,08:35:00,DRY,7.85,7.70,18.0,775.50,528.2
2020-04-21,08:40:00,DRY,7.10,7.67,17.7,775.00,551.2
2020-04-21,08:45:00,DRY,6.75,7.55,17.5,775.00,573.6
2020-04-21,08:50:00,DRY,6.30,7.57,18.7,775.00,595.4
2020-04-21,08:55:00,DRY,6.75,7.40,18.0,775.00,616.9
2020-04-21,09:00:00,DRY,6.43,7.40,18.3,775.00,639.1
2020-04-21,09:05:00,DRY,6.45,7.40,18.0,775.00,659.5
2020-04-21,09:10:00,DRY,6.57,7.57,19.3,775.33,681.4
2020-04-21,09:15:00,DRY,6.55,7.45,20.0,776.00,702.0
2020-04-21,09:20:00,DRY,6.57,7.70,21.7,776.00,721.9
2020-04-21,09:25:00,DRY,6.30,7.45,23.0,775.00,742.5
2020-04-21,09:30:00,DRY,6.63,7.37,23.7,775.00,762.2
2020-04-21,09:35:00,DRY,6.95,7.35,23.5,775.00,781.2
2020-04-21,09:40:00,DRY,6.57,7.20,26.0,776.00,799.2
2020-04-21,09:45:00,DRY,6.80,7.85,19.5,776.00,818.2
2020-04-21,09:50:00,DRY,5.93,7.60,24.3,776.00,835.3
2020-04-21,09:55:00,DRY,6.95,8.30,21.0,775.50,853.9
2020-04-21,10:00:00,DRY,6.77,8.00,21.0,775.67,870.6
2020-04-21,10:05:00,DRY,6.10,8.10,21.0,776.00,887.8
2020-04-21,10:10:00,DRY,6.47,8.33,23.0,776.00,904.6
2020-04-21,10:15:00,DRY,4.70,7.65,26.0,776.00,921.1
2020-04-21,10:20:00,DRY,5.33,8.23,27.7,776.00,936.2
2020-04-21,10:25:00,DRY,6.05,8.10,23.5,776.00,951.5
2020-04-21,10:30:00,DRY,4.83,8.37,25.0,776.00,966.4
2020-04-21,10:35:00,DRY,6.25,8.50,24.5,776.00,981.0
2020-04-21,10:40:00,DRY,5.90,8.50,24.0,776.00,994.2
2020-04-21,10:45:00,DRY,3.55,8.15,25.0,776.00,1008.2
2020-04-21,10:50:00,DRY,5.23,8.53,26.0,776.00,1021.4
2020-04-21,10:55:00,DRY,5.25,9.15,23.5,776.00,1035.0
2020-04-21,11:00:00,DRY,4.90,8.80,24.0,776.00,1047.2
2020-04-21,11:05:00,DRY,4.55,8.25,26.0,776.00,1059.1
2020-04-21,11:10:00,DRY,4.20,8.53,26.0,776.00,1070.7
2020-04-21,11:15:00,DRY,4.70,8.40,24.0,776.00,1083.0
2020-04-21,11:20:00,DRY,4.97,8.80,26.7,776.00,1092.8
2020-04-21,11:25:00,DRY,5.20,9.05,25.0,776.00,1103.0
2020-04-21,11:30:00,DRY,5.20,9.43,26.0,776.00,1112.8
2020-04-21,11:35:00,DRY,6.15,9.00,26.5,776.00,1122.0
2020-04-21,11:40:00,DRY,4.87,9.17,25.7,776.00,1130.0
2020-04-21,11:45:00,DRY,5.20,9.80,24.0,776.00,1139.4
2020-04-21,11:50:00,DRY,4.73,9.60,23.7,776.00,1147.4
2020-04-21,11:55:00,DRY,5.65,10.30,26.0,776.00,1154.2
2020-04-21,12:00:00,DRY,4.63,9.50,24.7,776.00,1159.9
2020-04-21,12:05:00,DRY,5.35,9.60,28.0,776.00,1168.3
2020-04-21,12:10:00,DRY,5.50,10.00,25.3,776.00,1170.4
2020-04-21,12:15:00,DRY,6.40,9.90,25.0,776.00,1178.8
2020-04-21,12:20:00,DRY,6.57,10.10,25.3,776.00,1183.2
2020-04-21,12:25:00,DRY,6.25,9.65,27.0,776.00,1191.7
2020-04-21,12:30:00,DRY,6.97,9.73,28.3,776.00,1194.4
2020-04-21,12:35:00,DRY,5.50,9.75,27.0,776.00,1195.3
2020-04-21,12:40:00,DRY,6.77,9.93,29.7,776.00,1196.2
2020-04-21,12:45:00,DRY,6.50,9.75,29.0,776.00,1198.5
2020-04-21,12:50:00,DRY,6.23,9.43,34.3,776.00,1199.7
2020-04-21,12:55:00,DRY,6.40,9.60,31.0,776.00,1202.1
2020-04-21,13:00:00,DRY,6.27,8.97,33.7,776.00,1203.2
2020-04-21,13:05:00,DRY,5.25,8.60,34.5,776.00,1203.0
2020-04-21,13:10:00,DRY,5.83,8.80,33.0,775.67,1204.0
2020-04-21,13:15:00,DRY,7.45,8.50,31.5,776.00,1202.7
2020-04-21,13:20:00,DRY,6.83,9.27,27.0,775.67,1203.1
2020-04-21,13:25:00,DRY,6.05,9.20,27.0,775.50,1203.3
2020-04-21,13:30:00,DRY,6.30,8.90,28.0,776.00,1203.7
2020-04-21,13:35:00,DRY,5.70,9.10,29.0,775.00,1159.0
2020-04-21,13:40:00,DRY,4.53,8.87,34.0,775.00,1187.6
2020-04-21,13:45:00,DRY,4.90,8.95,31.5,775.00,1213.1
2020-04-21,13:50:00,DRY,4.90,9.33,32.7,775.00,1219.6
2020-04-21,13:55:00,DRY,4.10,8.90,30.0,775.00,1232.2
2020-04-21,14:00:00,DRY,4.47,8.87,29.7,775.00,1178.5
2020-04-21,14:05:00,DRY,5.40,8.85,29.5,775.00,1135.2
2020-04-21,14:10:00,DRY,4.13,9.23,32.7,775.00,1061.9
2020-04-21,14:15:00,DRY,4.35,8.80,33.5,775.00,1114.7
2020-04-21,14:20:00,DRY,3.90,8.90,33.3,775.00,1176.2
2020-04-21,14:25:00,DRY,3.40,8.55,30.5,775.00,1169.9
2020-04-21,14:30:00,DRY,4.27,8.80,31.0,775.00,1154.5
2020-04-21,14:35:00,DRY,4.00,9.30,36.0,775.00,1140.6
2020-04-21,14:40:00,DRY,4.20,8.73,33.0,775.00,1130.7
2020-04-21,14:45:00,DRY,4.75,8.85,31.5,775.00,1123.8
2020-04-21,14:50:00,DRY,5.50,9.03,27.7,775.00,1113.4
2020-04-21,14:55:00,DRY,5.60,8.95,29.5,775.00,1100.6
2020-04-21,15:00:00,DRY,5.67,8.90,27.0,775.00,1089.4
2020-04-21,15:05:00,DRY,5.45,8.65,27.5,775.00,1080.4
2020-04-21,15:10:00,DRY,4.83,8.90,26.0,775.00,1069.4
2020-04-21,15:15:00,DRY,4.90,8.85,26.0,775.00,1054.5
2020-04-21,15:20:00,DRY,5.20,9.10,24.7,775.00,1041.8
2020-04-21,15:25:00,DRY,5.15,8.85,26.0,775.00,1029.8
2020-04-21,15:30:00,DRY,5.13,9.13,25.7,775.00,1017.8
2020-04-21,15:35:00,DRY,5.80,8.75,26.5,775.00,1006.1
2020-04-21,15:40:00,DRY,6.10,8.83,27.3,775.00,988.5
2020-04-21,15:45:00,DRY,5.00,8.65,29.0,775.00,967.3
2020-04-21,15:50:00,DRY,5.13,8.43,30.0,774.33,937.0
2020-04-21,15:55:00,DRY,5.30,8.10,30.5,774.50,959.3
2020-04-21,16:00:00,DRY,4.60,8.40,28.7,774.67,860.4
2020-04-21,16:05:00,DRY,4.80,8.30,28.0,774.50,732.0
2020-04-21,16:10:00,DRY,4.47,7.87,29.0,774.00,766.9
2020-04-21,16:15:00,DRY,3.25,8.35,29.5,774.00,865.0
2020-04-21,16:20:00,DRY,3.93,8.63,29.0,774.00,894.3
2020-04-21,16:25:00,DRY,4.05,8.75,26.5,774.00,863.8
2020-04-21,16:30:00,DRY,4.23,8.70,25.7,774.00,839.4
2020-04-21,16:35:00,DRY,4.15,8.95,26.5,774.00,815.8
2020-04-21,16:40:00,DRY,4.07,9.13,26.7,774.00,793.5
2020-04-21,16:45:00,DRY,3.80,8.90,28.0,774.00,772.2
2020-04-21,16:50:00,DRY,3.70,9.30,26.3,774.00,723.4
2020-04-21,16:55:00,DRY,2.70,9.30,24.5,774.00,729.2
2020-04-21,17:00:00,DRY,2.67,9.03,24.0,774.00,707.4
2020-04-21,17:05:00,DRY,3.15,9.30,26.5,774.00,657.9
2020-04-21,17:10:00,DRY,2.87,9.30,29.0,774.00,666.7
2020-04-21,17:15:00,DRY,4.05,9.10,27.5,774.00,638.9
2020-04-21,17:20:00,DRY,4.63,8.70,30.0,774.00,619.8
2020-04-21,17:25:00,DRY,3.65,8.70,27.0,774.00,601.3
2020-04-21,17:30:00,DRY,4.20,8.63,28.3,774.00,498.4
2020-04-21,17:35:00,DRY,4.60,8.65,29.5,774.00,544.2
2020-04-21,17:40:00,DRY,3.80,8.43,28.3,774.00,545.0
2020-04-21,17:45:00,DRY,3.55,8.80,28.0,774.00,525.2
2020-04-21,17:50:00,DRY,3.60,8.77,28.0,774.00,456.4
2020-04-21,17:55:00,DRY,2.95,8.75,29.0,774.00,378.6
2020-04-21,18:00:00,DRY,3.03,8.40,29.0,774.00,296.2
2020-04-21,18:05:00,DRY,2.55,8.15,29.0,774.00,331.9
2020-04-21,18:10:00,DRY,1.97,8.23,29.0,774.00,119.1
2020-04-21,18:15:00,DRY,2.40,7.65,30.5,774.00,110.6
2020-04-21,18:20:00,DRY,2.17,7.40,31.3,774.00,129.8
2020-04-21,18:25:00,DRY,2.25,7.30,30.0,774.00,156.2
2020-04-21,18:30:00,DRY,2.30,7.27,29.7,774.00,153.7
2020-04-21,18:35:00,DRY,3.25,7.75,27.0,774.00,143.9
2020-04-21,18:40:00,DRY,3.93,8.13,25.0,774.00,130.8
2020-04-21,18:45:00,DRY,4.20,8.45,24.0,774.00,133.7
2020-04-21,18:50:00,DRY,3.67,8.57,24.7,774.00,120.2
2020-04-21,18:55:00,DRY,4.35,8.70,24.0,774.00,116.9
2020-04-21,19:00:00,DRY,3.23,8.87,24.0,774.00,111.5
2020-04-21,19:05:00,DRY,3.50,8.65,24.5,774.00,93.3
2020-04-21,19:10:00,DRY,2.60,8.67,23.7,774.00,75.9
2020-04-21,19:15:00,DRY,2.80,8.60,24.0,774.00,60.5
2020-04-21,19:20:00,DRY,2.63,8.30,24.0,774.00,41.6
2020-04-21,19:25:00,DRY,2.40,8.15,24.0,774.00,27.5
2020-04-21,19:30:00,DRY,2.00,8.07,23.3,774.00,17.1
2020-04-21,19:35:00,DRY,1.70,7.85,24.0,774.00,9.5
2020-04-21,19:40:00,DRY,2.23,7.87,24.0,774.00,5.9
2020-04-21,19:45:00,DRY,3.20,7.60,24.5,774.00,4.3
2020-04-21,19:50:00,DRY,3.33,7.53,25.0,774.00,2.6
2020-04-21,19:55:00,DRY,3.40,7.35,26.0,774.00,1.9